CDT,Max TemperatureF,Mean TemperatureF,Min TemperatureF,Max Dew PointF,MeanDew PointF,Min DewpointF,Max Humidity, Mean Humidity, Min Humidity, Max Sea Level PressureIn, Mean Sea Level PressureIn, Min Sea Level PressureIn, Max VisibilityMiles, Mean VisibilityMiles, Min VisibilityMiles, Max Wind SpeedMPH, Mean Wind SpeedMPH, Max Gust SpeedMPH,PrecipitationIn, CloudCover, Events, WindDirDegrees
2013-10-1,81,67,53,63,59,52,97,79,45,29.99,29.93,29.89,10,8,1,18,8,23,0.00,3,,203
2013-10-2,81,66,52,62,50,37,97,62,23,30.11,30.04,29.99,10,8,0,14,4,17,0.00,2,Fog,98
2013-10-3,78,68,59,68,64,54,97,86,61,29.98,29.91,29.85,10,7,0,9,5,18,0.40,5,Fog-Rain-Thunderstorm,171
2013-10-4,76,70,65,67,65,61,95,86,73,30.01,29.95,29.89,10,8,2,15,7,20,0.00,4,Rain-Thunderstorm,145
2013-10-5,77,68,58,69,64,52,96,88,72,29.93,29.86,29.79,10,7,1,10,6,21,1.40,4,Rain-Thunderstorm,190
2013-10-6,57,49,41,51,40,35,96,73,45,29.82,29.77,29.73,10,10,5,16,7,24,0.00,5,Rain,236
2013-10-7,70,55,40,47,43,39,97,74,34,30.09,29.94,29.78,10,9,2,16,7,23,0.00,2,,271
2013-10-8,76,58,39,49,42,38,97,66,26,30.18,30.14,30.09,10,10,10,12,3,17,0.00,0,,185
2013-10-9,74,58,42,48,42,33,96,66,22,30.24,30.18,30.14,10,10,7,10,5,,0.00,0,,135
2013-10-10,75,58,40,51,47,39,97,72,37,30.17,30.11,30.04,10,8,1,9,3,21,0.00,0,,147
2013-10-11,77,64,51,56,52,49,92,70,41,30.06,30.00,29.93,10,9,5,16,7,24,0.00,3,,144
2013-10-12,71,56,40,60,50,38,93,72,32,30.21,30.03,29.94,10,10,5,14,7,21,0.02,3,Rain-Thunderstorm,221
2013-10-13,63,48,32,43,35,30,98,71,29,30.41,30.35,30.22,10,10,7,12,2,16,0.00,0,,337
2013-10-14,65,48,32,45,39,32,99,73,38,30.41,30.30,30.11,10,10,7,12,3,17,0.00,0,,100
2013-10-15,68,55,43,61,48,40,95,78,63,30.09,29.90,29.77,10,9,2,15,9,22,0.22,4,Rain,187
2013-10-16,51,47,43,46,43,40,94,81,75,29.96,29.90,29.85,10,10,5,15,9,23,0.00,8,Rain,255
2013-10-17,55,46,37,46,42,35,96,85,48,29.94,29.88,29.84,10,8,2,15,6,18,0.34,5,Rain,262
2013-10-18,49,40,32,41,37,32,97,82,63,29.98,29.92,29.84,10,9,2,16,6,23,0.00,6,,247
2013-10-19,54,44,34,39,36,31,94,80,41,29.94,29.85,29.79,10,10,10,17,6,25,0.00,5,Rain,236
2013-10-20,60,45,30,46,38,30,99,78,50,29.87,29.81,29.72,10,9,4,13,3,17,0.00,5,Rain,205
2013-10-21,50,40,28,44,30,22,87,65,42,29.99,29.93,29.81,10,10,10,22,10,28,0.00,5,,273
2013-10-22,37,30,22,36,29,21,99,94,84,30.00,29.97,29.92,10,7,1,6,2,,0.26,4,Rain-Snow,253
2013-10-23,44,36,29,31,29,26,99,76,50,30.04,30.00,29.94,10,10,4,15,4,22,0.00,6,Rain,281
2013-10-24,40,34,28,32,26,21,87,70,49,30.32,30.18,30.03,10,10,10,15,8,24,0.00,6,Snow,295
2013-10-25,51,36,21,31,25,20,96,66,34,30.41,30.27,30.04,10,10,10,21,5,28,0.00,2,,221
2013-10-26,55,41,28,33,28,25,92,57,37,30.09,29.97,29.87,10,10,10,20,12,26,0.00,2,,270
2013-10-27,54,39,24,32,27,23,96,72,34,30.09,30.03,29.96,10,10,10,13,4,21,0.00,0,,208
2013-10-28,57,42,27,41,34,26,94,77,50,30.36,30.23,30.05,10,10,10,18,6,24,0.00,1,,63
2013-10-29,56,44,31,43,36,31,98,73,45,30.35,30.25,30.13,10,9,5,12,8,16,0.00,3,,98
2013-10-30,60,50,43,57,51,40,97,96,89,30.12,30.00,29.76,10,2,0,13,5,18,1.12,8,Fog-Rain-Thunderstorm,134
2013-10-31,62,53,43,60,55,40,97,94,87,29.75,29.48,29.28,10,8,4,21,10,29,0.94,8,Rain,231